Time,TemperatureF,DewpointF,PressureIn,WindDirection,WindDirectionDegrees,WindSpeedMPH,WindSpeedGustMPH,Humidity,HourlyPrecipIn,Conditions,Clouds,dailyrainin,SoftwareType,DateUTC
2013-01-09 00:02:00,21.0,17.0,27.64,South,173,0.0,1.0,85,0.00,,,0.04,,2013-01-09 07:02:00,
2013-01-09 00:12:00,21.0,17.0,27.64,South,173,0.0,1.0,85,0.00,,,0.04,,2013-01-09 07:12:00,
2013-01-09 00:22:00,21.0,17.0,27.64,South,173,0.0,1.0,85,0.00,,,0.04,,2013-01-09 07:22:00,
2013-01-09 00:32:00,21.0,17.0,27.64,South,173,0.0,0.0,86,0.00,,,0.04,,2013-01-09 07:32:00,
2013-01-09 00:42:00,21.0,17.0,27.64,South,173,0.0,0.0,86,0.00,,,0.04,,2013-01-09 07:42:00,
2013-01-09 00:52:00,21.0,17.0,27.63,South,173,1.0,2.0,84,0.00,,,0.04,,2013-01-09 07:52:00,
2013-01-09 01:02:00,21.0,17.0,27.63,South,172,0.0,2.0,84,0.00,,,0.04,,2013-01-09 08:02:00,
2013-01-09 01:12:00,21.0,17.0,27.63,South,172,0.0,2.0,84,0.00,,,0.04,,2013-01-09 08:12:00,
2013-01-09 01:22:00,21.0,17.0,27.63,South,172,0.0,2.0,84,0.00,,,0.04,,2013-01-09 08:22:00,
2013-01-09 01:32:00,21.0,17.0,27.62,South,172,0.0,0.0,84,0.00,,,0.04,,2013-01-09 08:32:00,
2013-01-09 01:42:00,21.0,17.0,27.62,South,172,0.0,0.0,84,0.00,,,0.04,,2013-01-09 08:42:00,
2013-01-09 01:53:00,21.0,17.0,27.62,South,172,0.0,0.0,85,0.00,,,0.04,,2013-01-09 08:53:00,
2013-01-09 02:02:00,21.0,17.0,27.62,South,172,0.0,0.0,86,0.00,,,0.04,,2013-01-09 09:02:00,
2013-01-09 02:12:00,21.0,17.0,27.62,South,172,0.0,0.0,86,0.00,,,0.04,,2013-01-09 09:12:00,
2013-01-09 02:22:00,21.0,17.0,27.62,South,172,0.0,1.0,84,0.00,,,0.04,,2013-01-09 09:22:00,
2013-01-09 02:32:00,20.0,16.0,27.62,South,172,0.0,1.0,85,0.00,,,0.04,,2013-01-09 09:32:00,
2013-01-09 02:42:00,20.0,16.0,27.62,South,172,0.0,1.0,85,0.00,,,0.04,,2013-01-09 09:42:00,
2013-01-09 02:53:00,19.0,16.0,27.61,South,172,0.0,0.0,87,0.00,,,0.04,,2013-01-09 09:53:00,
2013-01-09 03:02:00,20.0,17.0,27.61,South,172,2.0,4.0,89,0.00,,,0.04,,2013-01-09 10:02:00,
2013-01-09 03:12:00,20.0,17.0,27.61,South,172,2.0,4.0,89,0.00,,,0.04,,2013-01-09 10:12:00,
2013-01-09 03:22:00,20.0,18.0,27.60,East,80,0.0,2.0,90,0.00,,,0.04,,2013-01-09 10:22:00,
2013-01-09 03:32:00,20.0,17.0,27.60,East,80,0.0,0.0,89,0.00,,,0.04,,2013-01-09 10:32:00,
2013-01-09 03:42:00,20.0,17.0,27.60,East,80,0.0,0.0,89,0.00,,,0.04,,2013-01-09 10:42:00,
2013-01-09 03:52:00,20.0,17.0,27.59,East,80,0.0,1.0,89,0.00,,,0.04,,2013-01-09 10:52:00,
2013-01-09 04:02:00,19.0,16.0,27.58,East,80,0.0,0.0,89,0.00,,,0.04,,2013-01-09 11:02:00,
2013-01-09 04:12:00,19.0,16.0,27.58,East,80,0.0,0.0,89,0.00,,,0.04,,2013-01-09 11:12:00,
2013-01-09 04:22:00,19.0,16.0,27.58,East,80,0.0,0.0,89,0.00,,,0.04,,2013-01-09 11:22:00,
2013-01-09 04:32:00,20.0,17.0,27.57,East,80,0.0,2.0,89,0.00,,,0.04,,2013-01-09 11:32:00,
2013-01-09 04:42:00,20.0,17.0,27.57,East,80,0.0,2.0,89,0.00,,,0.04,,2013-01-09 11:42:00,
2013-01-09 04:52:00,20.0,16.0,27.57,East,80,1.0,2.0,86,0.00,,,0.04,,2013-01-09 11:52:00,
2013-01-09 05:03:00,20.0,17.0,27.56,East,80,1.0,4.0,87,0.00,,,0.04,,2013-01-09 12:03:00,
2013-01-09 05:12:00,20.0,17.0,27.56,East,80,1.0,4.0,87,0.00,,,0.04,,2013-01-09 12:12:00,
2013-01-09 05:23:00,20.0,17.0,27.56,East,80,1.0,5.0,88,0.00,,,0.04,,2013-01-09 12:23:00,
2013-01-09 05:33:00,20.0,17.0,27.55,East,80,0.0,2.0,87,0.00,,,0.03,,2013-01-09 12:33:00,
2013-01-09 05:43:00,20.0,17.0,27.55,East,80,0.0,2.0,87,0.00,,,0.03,,2013-01-09 12:43:00,
2013-01-09 05:52:00,21.0,17.0,27.55,East,80,1.0,3.0,85,0.00,,,0.03,,2013-01-09 12:52:00,
2013-01-09 06:02:00,19.0,15.0,27.55,East,80,1.0,3.0,84,0.00,,,0.03,,2013-01-09 13:02:00,
2013-01-09 06:12:00,19.0,15.0,27.55,East,80,1.0,3.0,84,0.00,,,0.03,,2013-01-09 13:12:00,
2013-01-09 06:23:00,18.0,15.0,27.55,East,80,0.0,1.0,86,0.00,,,0.03,,2013-01-09 13:23:00,
2013-01-09 06:33:00,18.0,14.0,27.55,East,80,0.0,0.0,85,0.00,,,0.02,,2013-01-09 13:33:00,
2013-01-09 06:43:00,18.0,14.0,27.55,East,80,0.0,0.0,85,0.00,,,0.02,,2013-01-09 13:43:00,
2013-01-09 06:52:00,17.0,14.0,27.54,East,80,0.0,0.0,86,0.00,,,0.02,,2013-01-09 13:52:00,
2013-01-09 07:03:00,16.0,13.0,27.55,East,80,0.0,0.0,87,0.00,,,0.02,,2013-01-09 14:03:00,
2013-01-09 07:12:00,16.0,13.0,27.55,East,80,0.0,0.0,87,0.00,,,0.02,,2013-01-09 14:12:00,
2013-01-09 07:22:00,16.0,13.0,27.54,East,80,0.0,0.0,88,0.00,,,0.02,,2013-01-09 14:22:00,
2013-01-09 07:33:00,16.0,13.0,27.54,East,80,0.0,0.0,89,0.00,,,0.02,,2013-01-09 14:33:00,
2013-01-09 07:43:00,16.0,13.0,27.54,East,80,0.0,0.0,89,0.00,,,0.02,,2013-01-09 14:43:00,
2013-01-09 07:53:00,16.0,13.0,27.55,East,80,0.0,0.0,89,0.00,,,0.02,,2013-01-09 14:53:00,
2013-01-09 08:03:00,16.0,13.0,27.56,East,80,0.0,0.0,89,0.00,,,0.02,,2013-01-09 15:03:00,
2013-01-09 08:12:00,16.0,13.0,27.56,East,80,0.0,0.0,89,0.00,,,0.02,,2013-01-09 15:12:00,
2013-01-09 08:23:00,16.0,13.0,27.57,East,80,0.0,0.0,89,0.00,,,0.02,,2013-01-09 15:23:00,
2013-01-09 08:33:00,16.0,13.0,27.58,East,80,0.0,0.0,89,0.00,,,0.02,,2013-01-09 15:33:00,
2013-01-09 08:42:00,16.0,13.0,27.58,East,80,0.0,0.0,89,0.00,,,0.02,,2013-01-09 15:42:00,
2013-01-09 08:53:00,16.0,14.0,27.57,East,80,0.0,2.0,90,0.00,,,0.02,,2013-01-09 15:53:00,
2013-01-09 09:03:00,17.0,15.0,27.58,East,80,0.0,0.0,90,0.00,,,0.02,,2013-01-09 16:03:00,
2013-01-09 09:12:00,17.0,15.0,27.58,East,80,0.0,0.0,90,0.00,,,0.02,,2013-01-09 16:12:00,
2013-01-09 09:23:00,18.0,16.0,27.58,East,80,0.0,1.0,90,0.00,,,0.02,,2013-01-09 16:23:00,
2013-01-09 09:33:00,18.0,16.0,27.58,East,80,0.0,0.0,90,0.00,,,0.01,,2013-01-09 16:33:00,
2013-01-09 09:43:00,18.0,16.0,27.58,East,80,0.0,0.0,90,0.00,,,0.01,,2013-01-09 16:43:00,
2013-01-09 09:52:00,19.0,16.0,27.58,East,80,0.0,0.0,89,0.00,,,0.01,,2013-01-09 16:52:00,
2013-01-09 10:02:00,19.0,16.0,27.58,East,80,0.0,0.0,89,0.00,,,0.01,,2013-01-09 17:02:00,
2013-01-09 10:12:00,19.0,16.0,27.58,East,80,0.0,0.0,89,0.00,,,0.01,,2013-01-09 17:12:00,
2013-01-09 10:23:00,20.0,17.0,27.58,East,80,0.0,0.0,88,0.00,,,0.01,,2013-01-09 17:23:00,
2013-01-09 10:32:00,20.0,17.0,27.58,East,80,0.0,0.0,88,0.00,,,0.01,,2013-01-09 17:32:00,
2013-01-09 10:43:00,20.0,17.0,27.58,East,80,0.0,0.0,88,0.00,,,0.01,,2013-01-09 17:43:00,
2013-01-09 10:53:00,22.0,19.0,27.57,East,80,0.0,0.0,87,0.00,,,0.01,,2013-01-09 17:53:00,
2013-01-09 11:03:00,22.0,18.0,27.57,East,80,0.0,0.0,86,0.00,,,0.01,,2013-01-09 18:03:00,
2013-01-09 11:12:00,22.0,18.0,27.57,East,80,0.0,0.0,86,0.00,,,0.01,,2013-01-09 18:12:00,
2013-01-09 11:23:00,23.0,19.0,27.56,East,80,0.0,1.0,84,0.00,,,0.01,,2013-01-09 18:23:00,
2013-01-09 11:33:00,23.0,19.0,27.55,East,80,0.0,0.0,83,0.00,,,0.01,,2013-01-09 18:33:00,
2013-01-09 11:43:00,23.0,19.0,27.55,East,80,0.0,0.0,83,0.00,,,0.01,,2013-01-09 18:43:00,
2013-01-09 11:53:00,24.0,20.0,27.55,East,80,0.0,0.0,83,0.00,,,0.01,,2013-01-09 18:53:00,
2013-01-09 12:03:00,26.0,21.0,27.54,East,80,0.0,0.0,82,0.00,,,0.01,,2013-01-09 19:03:00,
2013-01-09 12:12:00,26.0,21.0,27.54,East,80,0.0,0.0,82,0.00,,,0.01,,2013-01-09 19:12:00,
2013-01-09 12:22:00,27.0,22.0,27.53,East,80,0.0,0.0,80,0.00,,,0.01,,2013-01-09 19:22:00,
2013-01-09 12:33:00,27.0,22.0,27.52,East,80,0.0,0.0,80,0.00,,,0.01,,2013-01-09 19:33:00,
2013-01-09 12:43:00,27.0,22.0,27.52,East,80,0.0,0.0,80,0.00,,,0.01,,2013-01-09 19:43:00,
2013-01-09 12:52:00,29.0,24.0,27.51,East,80,0.0,0.0,80,0.00,,,0.01,,2013-01-09 19:52:00,
2013-01-09 13:02:00,31.0,25.0,27.50,East,80,0.0,0.0,78,0.00,,,0.01,,2013-01-09 20:02:00,
2013-01-09 13:12:00,31.0,25.0,27.50,East,80,0.0,0.0,78,0.00,,,0.01,,2013-01-09 20:12:00,
2013-01-09 13:23:00,32.0,25.0,27.50,East,80,0.0,0.0,76,0.00,,,0.01,,2013-01-09 20:23:00,
2013-01-09 13:33:00,33.0,26.0,27.50,East,80,0.0,0.0,75,0.00,,,0.00,,2013-01-09 20:33:00,
2013-01-09 13:42:00,33.0,26.0,27.50,East,80,0.0,0.0,75,0.00,,,0.00,,2013-01-09 20:42:00,
2013-01-09 13:53:00,34.0,27.0,27.50,East,80,0.0,0.0,76,0.00,,,0.00,,2013-01-09 20:53:00,
2013-01-09 14:03:00,36.0,29.0,27.49,SE,138,3.0,5.0,74,0.00,,,0.00,,2013-01-09 21:03:00,
2013-01-09 14:12:00,36.0,29.0,27.49,SE,138,3.0,5.0,74,0.00,,,0.00,,2013-01-09 21:12:00,
2013-01-09 14:22:00,37.0,28.0,27.49,SE,138,0.0,1.0,71,0.00,,,0.00,,2013-01-09 21:22:00,
2013-01-09 14:33:00,37.0,28.0,27.48,SE,138,0.0,0.0,70,0.00,,,0.00,,2013-01-09 21:33:00,
2013-01-09 14:43:00,37.0,28.0,27.48,SE,138,0.0,0.0,70,0.00,,,0.00,,2013-01-09 21:43:00,
2013-01-09 14:52:00,36.0,28.0,27.48,West,269,1.0,4.0,72,0.00,,,0.00,,2013-01-09 21:52:00,
2013-01-09 15:03:00,35.0,28.0,27.49,West,266,2.0,5.0,75,0.00,,,0.00,,2013-01-09 22:03:00,
2013-01-09 15:12:00,35.0,28.0,27.49,West,266,2.0,5.0,75,0.00,,,0.00,,2013-01-09 22:12:00,
2013-01-09 15:23:00,34.0,28.0,27.49,NNE,25,0.0,4.0,78,0.00,,,0.00,,2013-01-09 22:23:00,
2013-01-09 15:33:00,34.0,28.0,27.47,NNE,30,3.0,6.0,78,0.00,,,0.00,,2013-01-09 22:33:00,
2013-01-09 15:43:00,34.0,28.0,27.47,NNE,30,3.0,6.0,78,0.00,,,0.00,,2013-01-09 22:43:00,
2013-01-09 15:52:00,34.0,28.0,27.47,NNE,30,3.0,6.0,78,0.00,,,0.00,,2013-01-09 22:52:00,
2013-01-09 16:02:00,34.0,28.0,27.46,North,11,3.0,6.0,78,0.00,,,0.00,,2013-01-09 23:02:00,
2013-01-09 16:13:00,34.0,28.0,27.46,North,11,3.0,6.0,78,0.00,,,0.00,,2013-01-09 23:13:00,
2013-01-09 16:22:00,34.0,28.0,27.45,NNE,27,3.0,6.0,78,0.00,,,0.00,,2013-01-09 23:22:00,
2013-01-09 16:33:00,34.0,28.0,27.44,NNE,25,2.0,3.0,79,0.00,,,0.00,,2013-01-09 23:33:00,
2013-01-09 16:43:00,34.0,28.0,27.44,NNE,25,2.0,3.0,79,0.00,,,0.00,,2013-01-09 23:43:00,
2013-01-09 16:52:00,34.0,28.0,27.43,NNE,25,0.0,0.0,80,0.00,,,0.00,,2013-01-09 23:52:00,
2013-01-09 17:03:00,36.0,29.0,27.43,ESE,112,1.0,4.0,76,0.00,,,0.00,,2013-01-10 00:03:00,
2013-01-09 17:12:00,36.0,29.0,27.43,ESE,112,1.0,4.0,76,0.00,,,0.00,,2013-01-10 00:12:00,
2013-01-09 17:22:00,33.0,28.0,27.42,NNE,17,5.0,7.0,82,0.00,,,0.00,,2013-01-10 00:22:00,
2013-01-09 17:32:00,32.0,27.0,27.42,NE,40,0.0,6.0,83,0.00,,,0.00,,2013-01-10 00:32:00,
2013-01-09 17:42:00,32.0,27.0,27.42,NE,40,0.0,6.0,83,0.00,,,0.00,,2013-01-10 00:42:00,
2013-01-09 17:52:00,33.0,28.0,27.43,NE,39,0.0,5.0,83,0.00,,,0.00,,2013-01-10 00:52:00,
2013-01-09 18:02:00,32.0,27.0,27.42,NE,39,0.0,0.0,83,0.00,,,0.00,,2013-01-10 01:02:00,
2013-01-09 18:12:00,32.0,27.0,27.42,NE,39,0.0,0.0,83,0.00,,,0.00,,2013-01-10 01:12:00,
2013-01-09 18:22:00,31.0,27.0,27.41,ENE,59,0.0,4.0,85,0.00,,,0.00,,2013-01-10 01:22:00,
2013-01-09 18:33:00,33.0,29.0,27.39,ENE,59,1.0,4.0,86,0.00,,,0.00,,2013-01-10 01:33:00,
2013-01-09 18:42:00,33.0,29.0,27.39,ENE,59,1.0,4.0,86,0.00,,,0.00,,2013-01-10 01:42:00,
2013-01-09 18:52:00,36.0,31.0,27.39,South,188,1.0,5.0,81,0.00,,,0.00,,2013-01-10 01:52:00,
2013-01-09 19:03:00,34.0,28.0,27.38,North,5,3.0,5.0,79,0.00,,,0.00,,2013-01-10 02:03:00,
2013-01-09 19:12:00,34.0,28.0,27.38,North,5,3.0,5.0,79,0.00,,,0.00,,2013-01-10 02:12:00,
2013-01-09 19:22:00,34.0,29.0,27.37,NE,50,4.0,5.0,83,0.00,,,0.00,,2013-01-10 02:22:00,
2013-01-09 19:32:00,36.0,31.0,27.37,NE,50,0.0,4.0,81,0.00,,,0.00,,2013-01-10 02:32:00,
2013-01-09 19:42:00,36.0,31.0,27.37,NE,50,0.0,4.0,81,0.00,,,0.00,,2013-01-10 02:42:00,
2013-01-09 19:52:00,36.0,31.0,27.37,NE,50,0.0,4.0,81,0.00,,,0.00,,2013-01-10 02:52:00,
2013-01-09 20:03:00,37.0,31.0,27.34,East,96,5.0,8.0,78,0.00,,,0.00,,2013-01-10 03:03:00,
2013-01-09 20:12:00,37.0,31.0,27.34,East,96,5.0,8.0,78,0.00,,,0.00,,2013-01-10 03:12:00,
2013-01-09 20:22:00,38.0,31.0,27.34,ESE,109,4.0,7.0,77,0.00,,,0.00,,2013-01-10 03:22:00,
2013-01-09 20:33:00,38.0,31.0,27.34,SE,127,0.0,5.0,75,0.00,,,0.00,,2013-01-10 03:33:00,
2013-01-09 20:42:00,38.0,31.0,27.34,SE,127,0.0,5.0,75,0.00,,,0.00,,2013-01-10 03:42:00,
2013-01-09 20:52:00,37.0,30.0,27.33,SW,231,0.0,6.0,75,0.00,,,0.00,,2013-01-10 03:52:00,
2013-01-09 21:02:00,35.0,29.0,27.33,SW,231,0.0,0.0,77,0.00,,,0.00,,2013-01-10 04:02:00,
2013-01-09 21:12:00,35.0,29.0,27.33,SW,231,0.0,0.0,77,0.00,,,0.00,,2013-01-10 04:12:00,
2013-01-09 21:22:00,33.0,28.0,27.32,SW,229,0.0,2.0,83,0.00,,,0.00,,2013-01-10 04:22:00,
2013-01-09 21:32:00,33.0,28.0,27.32,SW,229,0.0,0.0,81,0.00,,,0.00,,2013-01-10 04:32:00,
2013-01-09 21:42:00,33.0,28.0,27.32,SW,229,0.0,0.0,81,0.00,,,0.00,,2013-01-10 04:42:00,
2013-01-09 21:52:00,32.0,28.0,27.31,SW,229,0.0,4.0,84,0.00,,,0.00,,2013-01-10 04:52:00,
2013-01-09 22:03:00,31.0,27.0,27.32,SW,229,0.0,0.0,85,0.00,,,0.00,,2013-01-10 05:03:00,
2013-01-09 22:12:00,31.0,27.0,27.32,SW,229,0.0,0.0,85,0.00,,,0.00,,2013-01-10 05:12:00,
2013-01-09 22:22:00,31.0,27.0,27.31,SW,229,0.0,2.0,86,0.00,,,0.00,,2013-01-10 05:22:00,
2013-01-09 22:33:00,31.0,28.0,27.31,SW,229,0.0,1.0,87,0.00,,,0.00,,2013-01-10 05:33:00,
2013-01-09 22:42:00,31.0,28.0,27.31,SW,229,0.0,1.0,87,0.00,,,0.00,,2013-01-10 05:42:00,
2013-01-09 22:52:00,31.0,28.0,27.31,SW,229,0.0,3.0,87,0.00,,,0.00,,2013-01-10 05:52:00,
2013-01-09 23:02:00,31.0,28.0,27.31,SW,229,0.0,3.0,87,0.00,,,0.00,,2013-01-10 06:02:00,
2013-01-09 23:12:00,31.0,28.0,27.31,SW,229,0.0,3.0,87,0.00,,,0.00,,2013-01-10 06:12:00,
2013-01-09 23:22:00,30.0,26.0,27.31,SW,236,0.0,0.0,85,0.00,,,0.00,,2013-01-10 06:22:00,
2013-01-09 23:32:00,29.0,26.0,27.30,SW,223,0.0,0.0,87,0.00,,,0.00,,2013-01-10 06:32:00,
2013-01-09 23:42:00,29.0,26.0,27.30,SW,223,0.0,0.0,87,0.00,,,0.00,,2013-01-10 06:42:00,
2013-01-09 23:52:00,29.0,26.0,27.30,SW,223,0.0,0.0,89,0.00,,,0.00,,2013-01-10 06:52:00,